Location: Unspecified
(49.2170°N, 0.0000°E)
Time: 04:31:58
(UTC+00:00)

Vanguard 1 - Pass Details

Date: 31 January 2021
Orbit: 649 x 3834 km, 34.2° (Epoch: 08 March)

Event Time Altitude Azimuth Distance (km) Brightness Sun altitude
Rises 16:52:02 0° 276° (W) 7,262 15.6 -0.4°
Reaches altitude 10° 16:57:15 10° 269° (W) 6,539 15.6 -1.1°
Maximum altitude 17:15:43 35° 214° (SW) 5,130 14.4 -3.9°
Drops below altitude 10° 17:33:33 10° 159° (SSE) 6,263 14.1 -6.6°
Sets 17:38:29 0° 150° (SSE) 6,927 14.3 -7.4°
